Location: �bnet
(46.9957°N, 8.4908°E)
Time: 13:59:33
(UTC+00:00)

USA 281 - Pass Details

Date: 11 May 2021
Orbit: 1078 x 1081 km, 106.0° (Epoch: 14 June)

Event Time Altitude Azimuth Distance (km) Brightness Sun altitude
Exits shadow 23:36:56 14° 117° (ESE) 2,635 5.0 -24.8°
Maximum altitude 23:42:10 41° 53° (NE) 1,515 4.2 -24.7°
Drops below altitude 10° 23:48:14 10° 346° (NNW) 2,931 6.4 -24.6°
Sets 23:50:53 0° 339° (NNW) 3,891 7.1 -24.6°
